Flag for Canada Weather past 2 weeks in Whistler, British Columbia, Canada

Now
67 °F

Mild.


Feels Like: 67 °F
Forecast: 50 / 85 °F
Wind: 2 mph from North

Location: Squamish Airport

Current Time: Jul 28, 2014 at 10:17:25 AM

Latest Report: Jul 28, 2014 at 9:00 AM


Visibility: N/A

Pressure: 30.11 "Hg

Humidity: 67%

Dew point: 55 °F

Location of WhistlerLocation

Historic Weather in Whistler — Graph

°F

Whistler temperature yesterday

Maximum temperature yesterday: 82 °F (at 4:00 PM)
Minimum temperature yesterday: 52 °F (at 6:00 AM)
Average temperature yesterday: 67 °F

Past Weeks' High & Low Weather Summary

 TemperatureHumidityPressure
High90 °F (Jul 13, 6:00 PM)100% (Jul 26, 6:00 AM)30.19 "Hg (Jul 26, 6:00 AM)
Low49 °F (Jul 26, 6:00 AM)28% (Jul 13, 1:00 PM)29.83 "Hg (Jul 16, 7:00 PM)
Average66 °F72%29.99 "Hg
* Reported Jul 13 9:00 AM — Jul 28 9:00 AM, Whistler, Weather by CustomWeather, © 2014

Note: Actual official high and low records may vary slightly from our data, if they occured in-between our weather recording intervals... More about our weather records

Advertising

Whistler weather history for previous 24 hours

 ConditionsComfort  
Time TempWeatherWind HumidityBarometerVisibility
9:00 AM
Jul 28
67 °FMild.2 mph67%30.11 "HgN/A
8:00 AM62 °FCool.3 mph76%30.12 "HgN/A
7:00 AM54 °FCool.1 mph96%30.12 "HgN/A
6:00 AM53 °FCool.1 mph98%30.12 "HgN/A
5:00 AM55 °FCool.1 mph92%30.11 "HgN/A
4:00 AM56 °FCool.2 mph91%30.10 "HgN/A
3:00 AM57 °FCool.1 mph91%30.09 "HgN/A
2:00 AM57 °FCool.1 mph89%30.09 "HgN/A
1:00 AM60 °FCool.1 mph88%30.09 "HgN/A
12:00 AM60 °FCool.1 mph86%30.08 "HgN/A
11:00 PM
Jul 27
62 °FCool.1 mph83%30.07 "HgN/A
10:00 PM64 °FMild.1 mph81%30.06 "HgN/A
9:00 PM68 °FMild.1 mph73%30.05 "HgN/A
8:00 PM73 °FMild.No wind59%30.04 "HgN/A
7:00 PM79 °FWarm.3 mph43%30.04 "HgN/A
6:00 PM81 °FPleasantly warm.8 mph36%30.05 "HgN/A
5:00 PM81 °FPleasantly warm.7 mph36%30.06 "HgN/A
4:00 PM82 °FPleasantly warm.7 mph37%30.07 "HgN/A
3:00 PM80 °FPleasantly warm.8 mph39%30.09 "HgN/A
2:00 PM78 °FWarm.9 mph41%30.10 "HgN/A
1:00 PM76 °FMild.7 mph46%30.11 "HgN/A
12:00 PM77 °FMild.3 mph40%30.13 "HgN/A
11:00 AM72 °FMild.1 mph46%30.15 "HgN/A
10:00 AM69 °FMild.1 mph59%30.17 "HgN/A
Weather by CustomWeather, © 2014

See weather overviewHow to use our weather pages